Location: Newark
(46.7636°N, 1.8358°W)
Time: 07:37:34
(UTC+00:00)

Vanguard 1 Rocket - All Passes

Search period start: 21 October 2019 00:00
Search period end: 31 October 2019 00:00
Orbit: 650 x 4226 km, 34.3° (Epoch: 20 October)

Date Brightness Start Highest point End Pass type
(mag) Time Alt. Az. Time Alt. Az. Time Alt. Az.
21 Oct - 07:16:43 10° SE 07:19:33 11° ESE 07:22:43 10° ESE daylight
21 Oct - 09:31:32 10° SSW 09:43:21 38° SE 10:02:50 10° E daylight
21 Oct - 11:54:54 10° WSW 12:11:18 57° S 12:36:10 10° ESE daylight
21 Oct - 14:21:27 10° W 14:41:56 53° SSW 15:06:04 10° SE daylight
21 Oct - 16:51:42 10° W 17:11:26 31° SW 17:30:12 10° S daylight
22 Oct - 08:22:33 10° S 08:31:51 26° SE 08:46:16 10° E daylight
22 Oct - 10:43:59 10° SW 10:57:50 52° SSE 11:20:51 10° E daylight
22 Oct - 13:09:08 10° W 13:27:31 57° S 13:52:36 10° ESE daylight
22 Oct - 15:37:18 10° W 15:57:53 41° SSW 16:19:39 10° SSE daylight
22 Oct - 18:12:42 10° W 18:25:28 16° SW 18:37:32 10° SSW visible
23 Oct - 07:15:40 10° SSE 07:21:08 14° SE 07:28:11 10° E daylight
23 Oct - 09:33:46 10° SW 09:45:16 42° SSE 10:05:01 10° E daylight
23 Oct - 11:57:31 10° WSW 12:13:25 57° S 12:38:07 10° ESE daylight
23 Oct - 14:24:08 10° W 14:43:48 49° SSW 15:07:37 10° SE daylight
23 Oct - 16:54:58 10° W 17:12:50 26° SW 17:30:30 10° S daylight
24 Oct - 08:24:24 10° SSW 08:33:39 30° SE 08:48:49 10° E daylight
24 Oct - 10:46:31 10° WSW 10:59:58 53° SSE 11:22:52 10° E daylight
24 Oct - 13:11:48 10° W 13:29:35 54° SSW 13:54:20 10° SE daylight
24 Oct - 15:40:11 10° W 15:59:30 36° SW 16:20:34 10° SSE daylight
24 Oct - 18:19:49 10° WSW 18:26:45 12° WSW 18:33:34 10° SW visible
25 Oct - 07:16:28 10° SSE 07:22:51 18° SE 07:31:51 10° E daylight
25 Oct - 09:36:10 10° SW 09:47:21 45° SSE 10:07:07 10° E daylight
25 Oct - 12:00:12 10° WSW 12:15:35 56° S 12:39:59 10° ESE daylight
25 Oct - 14:26:54 10° W 14:45:39 44° SSW 15:08:54 10° SE daylight
25 Oct - 16:58:49 10° W 17:14:16 21° SW 17:29:59 10° S visible
26 Oct - 08:26:33 10° SSW 08:35:38 34° SE 08:51:10 10° E daylight
26 Oct - 10:49:10 10° WSW 11:02:11 54° S 11:24:48 10° ESE daylight
26 Oct - 13:14:34 10° W 13:31:38 50° SSW 13:55:52 10° SE daylight
26 Oct - 15:43:20 10° W 16:01:08 30° SW 16:21:00 10° SSE daylight
27 Oct - 07:17:57 10° S 07:24:43 22° SE 07:34:54 10° E daylight
27 Oct - 09:38:43 10° SW 09:49:33 48° SSE 10:09:10 10° E daylight
27 Oct - 12:02:57 10° WSW 12:17:48 54° S 12:41:42 10° ESE daylight
27 Oct - 14:29:48 10° W 14:47:31 39° SSW 15:09:51 10° SSE daylight
27 Oct - 17:03:46 10° W 17:15:44 16° SW 17:28:08 10° SSW visible
28 Oct - 06:14:09 10° SE 06:14:26 10° SE 06:14:43 10° ESE visible
28 Oct - 08:28:53 10° SW 08:37:44 37° SSE 08:53:25 10° E daylight
28 Oct - 10:51:55 10° WSW 11:04:29 54° S 11:26:40 10° ESE daylight
28 Oct - 13:17:24 10° W 13:33:42 46° SSW 13:57:10 10° SE daylight
28 Oct - 15:46:53 10° W 16:02:48 25° SW 16:20:48 10° S daylight
29 Oct - 07:19:52 10° SSW 07:26:44 25° SE 07:37:38 10° E daylight
29 Oct - 09:41:23 10° WSW 09:51:52 49° SSE 10:11:10 10° E daylight
29 Oct - 12:05:46 10° W 12:20:04 51° S 12:43:14 10° SE daylight
29 Oct - 14:32:55 10° W 14:49:23 33° SSW 15:10:23 10° SSE daylight
29 Oct - 17:12:06 10° WSW 17:17:17 11° SW 17:22:35 10° SW visible
30 Oct - 06:12:42 10° SSE 06:16:21 13° SE 06:20:54 10° ESE visible
30 Oct - 08:31:23 10° SW 08:40:00 40° SSE 08:55:36 10° E daylight
30 Oct - 10:54:43 10° WSW 11:06:51 52° S 11:28:25 10° ESE daylight
30 Oct - 13:20:21 10° W 13:35:48 41° SSW 13:58:09 10° SE daylight
30 Oct - 15:51:07 10° W 16:04:30 19° SW 16:19:40 10° S daylight
